DECAYED

STARLINK-1082, 44938 (Decayed)

Orbit data source: Space-Track

STARLINK-1082, 44938 was a payload satellite owned by SpaceX/Seattle (US) in LEO that was launched on Tue, 07 Jan 2020 UTC via an FALCON 9 launch vehicle from the Air Force Eastern Test Range (AFETR). Payload-class satellites include a variety of spacecraft equipped with specific instruments for various scientific and technological missions. These include communications satellites like Starlink; space stations such as the ISS; scientific satellites like the Hubble; Earth observation satellites from companies like Planet Labs, Umbra, and HawkEye 360; GPS; miniature CubeSats for education and research; and military/defense satellites.

Not visible in the next 10 days
Identifier
44938, 2020-001AA
Orbit
Decayed
Country
Flag of USUS
Related business
Manufacturer
SpaceX/Seattle
Mission
Decayed Commercial Communications
Bus & Motor
STARLINK, Unknown motor
Mass
260 kg wet, ~248 kg dry
Launch date (UTC)
2020-01-07 (6 years ago)
Launch vehicle
FALCON 9
Launch site
Air Force Eastern Test Range (AFETR)
Object type
Payload
Rocket body
Debris
Shape & HBR
Box + 1 Pan, 4.4 m
Radar Cross Section
13.562 m², Large (>1 m²)

Expand to show TLE details & history
Last TLE update: 1 year ago

TLE from 1 year ago
0 STARLINK-1082
1 44938U 20001AA  24234.10048814  .27086174  12311-4  34264-2 0  9990
2 44938  53.0254 271.8482 0005729 328.3067 140.5337 16.35148036255904
Epoch: 2024-08-21T02:24Z
TLE epoch observation values (Epoch: 2024-08-21T02:24:42.175Z)
Latitude
49.25934°
Longitude
25.4215°
Altitude
187.236 km
Speed
7.798 km/s
True Right ascension
02h 06m 01s
True Declination
49° 04' 28"
Sunlit
Object was in daylight at epoch
Visualization orbit readout
Latitude
Unknown
Longitude
Unknown
Altitude
Unknown
Speed
Unknown
Apparent Right ascension
Unknown
Apparent Declination
Unknown
Sunlit
N/A
Visualization observer readout
Local Sidereal Time
20:12:13
Azimuth
Unknown
Elevation
Unknown
Doppler factor
Unknown
Orbital elements
Apogee altitude
182.788 km
Perigee altitude
175.275 km
Semi-major axis
6,557.169 km
Eccentricity
0.00057
Inclination
53.0254°
RAAN
271.8482°
Arg. of periapsis
328.3067°
True anomaly
140.57541°
Mean anomaly
140.5337°
Eccentric anomaly
140.55455°
Mean motion
4.0876 °/min
Orbital period
88.07 mins
BSTAR
0.0034264
Loading maneuver chart data...
Computing Atmospheric mass density...

Documentation

Showing up to 5 results
|